Location: Unspecified
(43.8044°N, 11.0278°E)
Time: 11:49:03
(UTC+02:00)

Resurs 1-4 Rocket - Visible Passes

Search period start: 19 September 2014 00:00
Search period end: 29 September 2014 00:00
Orbit: 801 x 814 km, 98.3° (Epoch: 18 September)

Date Brightness Start Highest point End Pass type
(mag) Time Alt. Az. Time Alt. Az. Time Alt. Az.
19 Sep 4.5 04:13:30 10° NE 04:17:17 20° E 04:21:02 10° SE visible
19 Sep 2.2 05:52:18 10° N 05:57:30 57° WNW 06:02:41 10° SSW visible
20 Sep 4.9 03:50:52 10° ENE 03:52:33 11° E 03:54:14 10° ESE visible
20 Sep 2.1 05:27:47 10° NNE 05:33:08 89° ESE 05:38:27 10° SSW visible
21 Sep 2.8 05:03:28 10° NNE 05:08:41 55° E 05:13:53 10° S visible
22 Sep 3.7 04:39:22 10° NNE 04:44:09 33° E 04:48:55 10° SSE visible
22 Sep 2.8 06:19:14 10° N 06:23:59 34° WNW 06:28:43 10° SW visible
23 Sep 4.4 04:15:36 10° NE 04:19:32 21° E 04:23:26 10° SE visible
23 Sep 2.2 05:54:32 10° N 05:59:43 54° WNW 06:04:52 10° SSW visible
24 Sep 4.9 03:52:43 10° ENE 03:54:49 12° E 03:56:54 10° ESE visible
24 Sep 2.1 05:30:01 10° NNE 05:35:22 87° WNW 05:40:41 10° SSW visible
25 Sep 2.7 05:05:40 10° NNE 05:10:55 58° E 05:16:09 10° S visible
26 Sep 3.6 04:41:32 10° NNE 04:46:24 35° E 04:51:14 10° SSE visible
26 Sep 2.9 06:21:30 10° N 06:26:11 32° WNW 06:30:51 10° SW visible
27 Sep 4.3 04:17:43 10° NE 04:21:47 22° E 04:25:49 10° SE visible
27 Sep 2.3 05:56:47 10° N 06:01:56 51° WNW 06:07:03 10° SW visible
28 Sep 4.8 03:54:39 10° ENE 03:57:04 13° E 03:59:29 10° ESE visible
28 Sep 2.0 05:32:14 10° NNE 05:37:35 83° WNW 05:42:54 10° SSW visible
